EW2910 Weather Reports


Display with metric or nautical units.
time (UTC)temp
F
wind
direction
speed
MPH
gust
MPH
rain 1hr
in
rain 24hr
in
rain mn
in
humidity
%
barometer
mb
20260904174608 94 161 2.0 7.0 0.00 0.02 0.00 67 1015.2
20260904173130 92 226 1.0 8.0 0.00 0.02 0.00 69 1015.3
20260904171611 91 243 1.0 5.0 0.00 0.02 0.00 73 1015.5
20260904170105 91 0 0.0 5.0 0.00 0.02 0.00 73 1015.7
20260904164601 92 247 1.0 10.0 0.00 0.04 0.00 72 1015.9
20260904163108 92 234 3.0 8.0 0.00 0.04 0.00 72 1016.2
20260904161605 92 211 3.0 9.0 0.00 0.04 0.00 72 1016.3
20260904160106 91 187 0.0 10.0 0.00 0.04 0.00 73 1016.4
20260904154607 90 224 3.0 10.0 0.00 0.04 0.00 77 1016.4
20260904153105 89 193 4.0 9.0 0.00 0.04 0.00 77 1016.5
20260904151616 89 126 3.0 8.0 0.00 0.04 0.00 77 1016.5
20260904150125 89 165 1.0 6.0 0.00 0.04 0.00 76 1016.1
20260904144603 88 226 2.0 6.0 0.00 0.04 0.00 79 1016.1
20260904143113 87 0 2.0 6.0 0.00 0.04 0.00 81 1016.1
20260904141616 86 209 2.0 8.0 0.00 0.04 0.00 83 1016.0
20260904140106 86 0 0.0 6.0 0.00 0.04 0.00 84 1016.3
20260904134622 85 0 0.0 5.0 0.00 0.04 0.00 85 1016.1
20260904133110 84 0 0.0 2.0 0.00 0.04 0.00 86 1015.9
20260904131603 83 0 0.0 0.0 0.00 0.04 0.00 89 1015.9
20260904130109 81 0 0.0 2.0 0.00 0.04 0.00 92 1015.7
20260904124602 80 0 0.0 2.0 0.00 0.04 0.00 94 1015.6
20260904123107 78 0 0.0 2.0 0.00 0.04 0.00 95 1015.5
20260904121603 77 0 0.0 0.0 0.00 0.04 0.00 96 1015.6
20260904120107 76 0 0.0 0.0 0.00 0.04 0.00 98 1015.4
20260904114604 75 0 0.0 0.0 0.00 0.04 0.00 98 1015.2
20260904113103 74 0 0.0 0.0 0.00 0.04 0.00 98 1015.0
20260904111607 74 0 0.0 0.0 0.00 0.04 0.00 98 1015.0
20260904104605 74 0 0.0 0.0 0.00 0.04 0.00 97 1014.7
20260904103106 74 0 0.0 0.0 0.00 0.04 0.00 97 1014.6
20260904101602 74 0 0.0 0.0 0.00 0.04 0.00 97 1014.5
20260904100106 74 0 0.0 0.0 0.00 0.04 0.00 97 1014.4
20260904094605 74 0 0.0 0.0 0.00 0.04 0.00 97 1014.3
20260904093109 74 0 0.0 0.0 0.00 0.04 0.00 97 1014.2
20260904091606 74 0 0.0 0.0 0.00 0.04 0.00 97 1014.1
20260904090104 75 0 0.0 0.0 0.00 0.04 0.00 97 1014.1
20260904084603 75 0 0.0 0.0 0.00 0.04 0.00 97 1014.1
20260904083105 75 0 0.0 0.0 0.00 0.04 0.00 96 1014.1
20260904081604 75 0 0.0 0.0 0.00 0.04 0.00 96 1014.1
20260904080100 75 0 0.0 0.0 0.00 0.04 0.00 96 1014.2
20260904074603 75 0 0.0 0.0 0.00 0.04 0.00 96 1014.0
20260904073101 75 0 0.0 0.0 0.00 0.04 0.00 96 1014.0
20260904071604 75 0 0.0 1.0 0.00 0.04 0.00 96 1013.9
20260904070106 75 0 0.0 0.0 0.00 0.04 0.00 96 1014.0
20260904064601 75 0 0.0 0.0 0.00 0.04 0.00 96 1014.0
20260904063121 75 0 0.0 0.0 0.00 0.04 0.00 95 1014.2
20260904061602 75 0 0.0 1.0 0.00 0.04 0.00 96 1014.3
20260904060105 75 0 0.0 0.0 0.00 0.04 0.00 96 1014.5
20260904054605 76 0 0.0 1.0 0.00 0.04 0.00 96 1014.6
20260904053104 76 0 0.0 1.0 0.00 0.04 0.00 96 1014.6
20260904051609 76 0 0.0 1.0 0.00 0.04 0.00 95 1014.7
20260904050105 76 106 0.0 0.0 0.00 0.04 0.00 95 1014.8
20260904044601 76 0 0.0 0.0 0.00 0.04 0.00 96 1015.0
20260904043103 76 0 0.0 0.0 0.00 0.04 0.00 96 1014.9
20260904041607 76 0 0.0 0.0 0.00 0.04 0.00 96 1014.9
20260904040109 76 0 0.0 0.0 0.00 0.04 0.00 96 1015.0
20260904034603 76 0 0.0 0.0 0.00 0.04 0.04 96 1014.8
20260904033104 76 0 0.0 1.0 0.00 0.04 0.04 96 1014.8
20260904031613 76 0 0.0 0.0 0.00 0.04 0.04 96 1014.8
20260904030103 76 0 0.0 1.0 0.00 0.04 0.04 96 1014.8
20260904024611 76 0 0.0 1.0 0.00 0.04 0.04 96 1014.7
20260904023103 76 0 0.0 1.0 0.00 0.04 0.04 95 1014.9
20260904021608 76 0 0.0 1.0 0.00 0.04 0.04 95 1014.7
20260904020116 76 0 0.0 0.0 0.00 0.04 0.04 95 1014.6
20260904014620 76 0 0.0 3.0 0.00 0.04 0.04 94 1014.7
20260904013101 77 0 0.0 6.0 0.00 0.04 0.04 94 1014.9
20260904011601 77 0 0.0 3.0 0.00 0.04 0.04 94 1014.6
20260904010104 77 0 0.0 3.0 0.00 0.04 0.04 93 1014.3
20260904004609 77 0 0.0 3.0 0.00 0.04 0.04 93 1014.0
20260904003103 77 0 0.0 3.0 0.00 0.04 0.04 93 1014.2
20260904001606 78 105 0.0 3.0 0.00 0.04 0.04 92 1014.5
20260904000124 78 0 0.0 2.0 0.00 0.04 0.04 92 1014.3
20260903234605 78 207 0.0 0.0 0.00 0.04 0.04 90 1014.2
20260903233103 79 0 0.0 7.0 0.00 0.04 0.04 88 1014.0
20260903231605 80 126 2.0 13.0 0.00 0.04 0.04 87 1014.3
20260903230109 81 81 3.0 7.0 0.00 0.04 0.04 92 1014.3
20260903224627 81 0 0.0 6.0 0.00 0.04 0.04 91 1014.1
20260903223123 82 108 1.0 7.0 0.00 0.04 0.04 89 1013.5
20260903221608 82 96 1.0 11.0 0.00 0.04 0.04 87 1013.8
20260903220104 83 114 3.0 12.0 0.00 0.04 0.04 85 1013.5
20260903214612 84 84 4.0 12.0 0.00 0.16 0.04 84 1012.9
20260903213114 85 116 3.0 13.0 0.00 0.16 0.04 83 1012.9
20260903211609 87 89 5.0 11.0 0.00 0.16 0.04 82 1012.7
20260903210128 87 0 2.0 9.0 0.00 0.16 0.04 79 1012.7
20260903204603 88 0 0.0 6.0 0.00 1.60 0.04 78 1012.8
20260903203114 88 0 0.0 9.0 0.00 1.60 0.04 78 1012.8
20260903201601 87 332 3.0 9.0 0.00 1.60 0.04 80 1012.7
20260903194603 86 0 2.0 9.0 0.00 2.27 0.04 84 1013.6
20260903193105 86 0 0.0 10.0 0.00 2.27 0.04 85 1013.8
20260903191602 85 0 1.0 7.0 0.00 2.27 0.04 87 1014.2
20260903184603 82 0 5.0 9.0 0.01 2.27 0.04 92 1014.0
20260903183103 81 0 3.0 11.0 0.01 2.27 0.04 93 1014.3
20260903181610 80 0 2.0 9.0 0.01 2.27 0.04 94 1014.1
20260903180104 79 47 0.0 5.0 0.02 2.27 0.04 93 1014.4